• In Italy
  • List of Countries
  • For 7 days
  • Water Temperature
  • Satellite Maps
  • Weather Map
  • Weather Widgets
  • user-avatar
    Login

    Hourly Weather Imphal

    Today, 19 July, Thursday

    Time Temperature Precipitation Wind Pressure Humidity
    00:00 +25°C° 0 mm 1 mps 686 mmHg 92%
    01:00 +25°C° 0 mm 1 mps 685 mmHg 93%
    02:00 +25°C° 0 mm 1 mps 685 mmHg 93%
    03:00 +24°C° 0 mm 1 mps 685 mmHg 93%
    04:00 +25°C° 0 mm 1 mps 685 mmHg 92%
    05:00 +25°C° 0 mm 1 mps 685 mmHg 91%
    06:00 +26°C° 0 mm 1 mps 686 mmHg 87%
    07:00 +28°C° 0 mm 1 mps 686 mmHg 77%
    08:00 +31°C° 0 mm 1 mps 686 mmHg 67%
    09:00 +33°C° 0 mm 1 mps 686 mmHg 56%
    10:00 +34°C° 0 mm 1 mps 686 mmHg 53%
    11:00 +35°C° 0 mm 1 mps 686 mmHg 50%
    12:00 +37°C° 0 mm 2 mps 686 mmHg 46%
    13:00 +37°C° 0 mm 2 mps 685 mmHg 47%
    14:00 +37°C° 0 mm 2 mps 684 mmHg 47%
    15:00 +37°C° 0 mm 2 mps 684 mmHg 48%
    16:00 +34°C° 0 mm 1 mps 683 mmHg 56%
    17:00 +32°C° 0 mm 1 mps 683 mmHg 64%
    18:00 +31°C° 0 mm 1 mps 682 mmHg 72%
    19:00 +29°C° 0 mm 1 mps 682 mmHg 75%
    20:00 +28°C° 0 mm 1 mps 683 mmHg 79%
    21:00 +27°C° 0 mm 1 mps 683 mmHg 83%
    22:00 +26°C° 0.1 mm 1 mps 683 mmHg 84%
    23:00 +26°C° 0.1 mm 1 mps 683 mmHg 84%

    Tomorrow, 20 July, Friday

    Time Temperature Precipitation Wind Pressure Humidity
    00:00 +26°C° 0.1 mm 1 mps 684 mmHg 85%
    01:00 +25°C° 0.1 mm 1 mps 684 mmHg 84%
    02:00 +25°C° 0.1 mm 1 mps 683 mmHg 84%
    03:00 +25°C° 0.1 mm 1 mps 683 mmHg 84%
    04:00 +25°C° 0.1 mm 1 mps 683 mmHg 84%
    05:00 +23°C° 0.1 mm 0 mps 684 mmHg 83%
    06:00 +24°C° 0.1 mm 0 mps 684 mmHg 83%
    07:00 +28°C° 0.1 mm 1 mps 684 mmHg 76%
    08:00 +30°C° 0.1 mm 1 mps 685 mmHg 70%
    09:00 +32°C° 0.1 mm 1 mps 686 mmHg 63%
    10:00 +33°C° 0.2 mm 1 mps 685 mmHg 62%
    11:00 +34°C° 0.2 mm 2 mps 685 mmHg 61%
    12:00 +35°C° 0.2 mm 2 mps 685 mmHg 60%
    13:00 +35°C° 0.3 mm 2 mps 684 mmHg 61%
    14:00 +34°C° 0.3 mm 2 mps 684 mmHg 62%
    15:00 +34°C° 0.3 mm 2 mps 683 mmHg 63%
    16:00 +32°C° 0.2 mm 2 mps 683 mmHg 69%
    17:00 +30°C° 0.2 mm 1 mps 683 mmHg 75%
    18:00 +29°C° 0.2 mm 1 mps 683 mmHg 80%
    19:00 +28°C° 0.2 mm 1 mps 683 mmHg 84%
    20:00 +27°C° 0.2 mm 1 mps 684 mmHg 89%
    21:00 +26°C° 0.2 mm 1 mps 685 mmHg 93%
    22:00 +25°C° 0.4 mm 1 mps 685 mmHg 94%
    23:00 +23°C° 0.4 mm 0 mps 685 mmHg 95%

    Day after tomorrow, 21 July, Saturday

    Time Temperature Precipitation Wind Pressure Humidity
    00:00 +23°C° 0.4 mm 0 mps 685 mmHg 96%
    01:00 +23°C° 0.3 mm 0 mps 685 mmHg 96%
    02:00 +23°C° 0.3 mm 0 mps 685 mmHg 96%
    03:00 +23°C° 0.3 mm 0 mps 685 mmHg 96%
    04:00 +23°C° 0.6 mm 0 mps 685 mmHg 96%
    05:00 +23°C° 0.6 mm 0 mps 685 mmHg 95%
    06:00 +25°C° 0.6 mm 1 mps 685 mmHg 95%
    07:00 +26°C° 0.7 mm 1 mps 686 mmHg 92%
    08:00 +27°C° 0.7 mm 1 mps 686 mmHg 89%
    09:00 +28°C° 0.7 mm 1 mps 687 mmHg 87%
    10:00 +28°C° 0.8 mm 1 mps 686 mmHg 85%
    11:00 +29°C° 0.8 mm 1 mps 686 mmHg 84%
    12:00 +29°C° 0.8 mm 1 mps 686 mmHg 83%
    13:00 +29°C° 0.8 mm 1 mps 685 mmHg 80%
    14:00 +30°C° 0.8 mm 1 mps 685 mmHg 77%
    15:00 +31°C° 0.8 mm 1 mps 684 mmHg 74%
    16:00 +30°C° 0.9 mm 1 mps 684 mmHg 79%
    17:00 +28°C° 0.9 mm 1 mps 684 mmHg 85%
    18:00 +27°C° 0.9 mm 1 mps 684 mmHg 90%
    19:00 +27°C° 0.8 mm 1 mps 685 mmHg 92%
    20:00 +26°C° 0.8 mm 1 mps 685 mmHg 94%
    21:00 +23°C° 0.8 mm 0 mps 686 mmHg 96%
    22:00 +23°C° 0.6 mm 0 mps 686 mmHg 97%
    23:00 +22°C° 0.6 mm 0 mps 686 mmHg 97%

    22 July, Sunday

    Time Temperature Precipitation Wind Pressure Humidity
    00:00 +22°C° 0.6 mm 0 mps 686 mmHg 97%
    01:00 +22°C° 0.9 mm 0 mps 686 mmHg 97%
    02:00 +22°C° 0.9 mm 0 mps 685 mmHg 97%
    03:00 +22°C° 0.9 mm 0 mps 685 mmHg 97%
    04:00 +22°C° 0.6 mm 0 mps 685 mmHg 97%
    05:00 +22°C° 0.6 mm 0 mps 686 mmHg 96%
    06:00 +22°C° 0.6 mm 0 mps 686 mmHg 95%
    07:00 +24°C° 0.4 mm 0 mps 686 mmHg 92%
    08:00 +27°C° 0.4 mm 1 mps 687 mmHg 88%
    09:00 +28°C° 0.4 mm 1 mps 687 mmHg 84%
    10:00 +29°C° 0.8 mm 1 mps 687 mmHg 81%
    11:00 +30°C° 0.8 mm 1 mps 687 mmHg 78%
    12:00 +31°C° 0.8 mm 1 mps 687 mmHg 75%
    13:00 +31°C° 1.9 mm 1 mps 686 mmHg 77%
    14:00 +30°C° 1.9 mm 1 mps 685 mmHg 79%
    15:00 +30°C° 1.9 mm 1 mps 684 mmHg 82%
    16:00 +29°C° 1.7 mm 1 mps 684 mmHg 85%
    17:00 +26°C° 1.7 mm 0 mps 684 mmHg 88%
    18:00 +25°C° 1.7 mm 0 mps 684 mmHg 91%
    19:00 +24°C° 1.5 mm 0 mps 684 mmHg 92%
    20:00 +24°C° 1.5 mm 0 mps 685 mmHg 94%
    21:00 +23°C° 1.5 mm 0 mps 685 mmHg 95%
    22:00 +23°C° 1.1 mm 0 mps 686 mmHg 95%
    23:00 +22°C° 1.1 mm 0 mps 686 mmHg 96%

    23 July, Monday

    Time Temperature Precipitation Wind Pressure Humidity
    00:00 +22°C° 1.1 mm 0 mps 686 mmHg 96%
    01:00 +22°C° 0.6 mm 0 mps 685 mmHg 96%
    02:00 +22°C° 0.6 mm 0 mps 685 mmHg 97%
    03:00 +22°C° 0.6 mm 0 mps 685 mmHg 97%
    04:00 +22°C° 0.5 mm 0 mps 685 mmHg 97%
    05:00 +22°C° 0.5 mm 0 mps 685 mmHg 96%
    06:00 +22°C° 0.5 mm 0 mps 686 mmHg 96%
    07:00 +23°C° 0.4 mm 0 mps 686 mmHg 92%
    08:00 +24°C° 0.4 mm 0 mps 687 mmHg 88%
    09:00 +26°C° 0.4 mm 0 mps 687 mmHg 83%
    10:00 +27°C° 0.6 mm 0 mps 687 mmHg 79%
    11:00 +28°C° 0.6 mm 0 mps 687 mmHg 75%
    12:00 +29°C° 0.6 mm 0 mps 687 mmHg 71%
    13:00 +29°C° 1.1 mm 0 mps 686 mmHg 72%
    14:00 +28°C° 1.1 mm 0 mps 685 mmHg 73%
    15:00 +30°C° 1.1 mm 1 mps 685 mmHg 75%
    16:00 +27°C° 1.4 mm 0 mps 685 mmHg 81%
    17:00 +26°C° 1.4 mm 0 mps 685 mmHg 88%
    18:00 +24°C° 1.4 mm 0 mps 685 mmHg 94%
    19:00 +24°C° 1 mm 0 mps 685 mmHg 94%
    20:00 +23°C° 1 mm 0 mps 686 mmHg 95%
    21:00 +23°C° 1 mm 0 mps 686 mmHg 95%
    22:00 +22°C° 0.6 mm 0 mps 686 mmHg 96%
    23:00 +22°C° 0.6 mm 0 mps 686 mmHg 96%

    24 July, Tuesday

    Time Temperature Precipitation Wind Pressure Humidity
    00:00 +22°C° 0.6 mm 0 mps 686 mmHg 97%
    01:00 +22°C° 0.8 mm 0 mps 686 mmHg 97%
    02:00 +22°C° 0.8 mm 0 mps 686 mmHg 97%
    03:00 +22°C° 0.8 mm 0 mps 685 mmHg 97%
    04:00 +22°C° 0.6 mm 0 mps 686 mmHg 97%
    05:00 +22°C° 0.6 mm 0 mps 686 mmHg 97%
    06:00 +22°C° 0.6 mm 0 mps 686 mmHg 97%
    07:00 +22°C° 0.4 mm 0 mps 687 mmHg 95%
    08:00 +23°C° 0.4 mm 0 mps 687 mmHg 92%
    09:00 +24°C° 0.4 mm 0 mps 687 mmHg 90%
    10:00 +25°C° 0.6 mm 0 mps 687 mmHg 87%
    11:00 +26°C° 0.6 mm 0 mps 687 mmHg 83%
    12:00 +27°C° 0.6 mm 0 mps 687 mmHg 80%
    13:00 +27°C° 1 mm 0 mps 686 mmHg 81%
    14:00 +27°C° 1 mm 0 mps 686 mmHg 83%
    15:00 +26°C° 1 mm 0 mps 685 mmHg 84%
    16:00 +25°C° 0.9 mm 0 mps 686 mmHg 88%
    17:00 +25°C° 0.9 mm 0 mps 686 mmHg 91%
    18:00 +24°C° 0.9 mm 0 mps 686 mmHg 94%
    19:00 +23°C° 0.3 mm 0 mps 686 mmHg 95%
    20:00 +23°C° 0.3 mm 0 mps 686 mmHg 96%
    21:00 +22°C° 0.3 mm 0 mps 687 mmHg 96%
    22:00 +22°C° 0.5 mm 0 mps 687 mmHg 96%
    23:00 +22°C° 0.5 mm 0 mps 686 mmHg 97%
    Show more